Погода в Веракрусе

Мексика     19°11′38″N   96°08′47″W
темп.,
°C
ветер,
м/с
пор.,
м/с
влажн.,
%
обл.,
%
осадки,
мм/ч
давл.,
гПа
погр.,
м
25 мая, ср
ср2501:00+26ю23823 0.0 1007158
04:00+25ююв348299 0.0 1005210
07:00+25ююз228573 0.0 100593
10:00+29юв226499 0.0 1007479
13:00+31в4357100 0.0 1006838
16:00+31всв535894 0.0 1005595
19:00+30св567013 0.0 1005349
22:00+27св25867 0.0 1008216
26 мая, чт
чт2601:00+27с12905 0.0 101140
04:00+26сз2290100 0.6 101099
07:00+26ссз35872 0.8 1011143
10:00+30с55655 0.3 1013799
13:00+31св556427 0.6 1012961
16:00+31св57675 0.0 1011872
19:00+29ссв577560 0.0 1010715
22:00+27с248940 0.0 1013274
27 мая, пт
пт2701:00+26ссз23905 0.1 1014175
04:00+25з1189100 0.2 101241
07:00+25сз1187100 0.3 101367
10:00+29ссв3367100 0.1 1014735
13:00+30св5462100 0.1 1013922
16:00+30св5660100 0.0 1011836
19:00+29св4571100 0.0 1011751
22:00+27с248419 0.4 1013219
28 мая, сб
сб2801:00+26сз238756 0.8 1013211
04:00+25ссз228623 1.1 1011114
07:00+25зсз228498 2.9 101262
10:00+28ссз236897 0.4 1013505
13:00+30св5459100 0.4 1012957
16:00+30св5558100 0.0 1009856
19:00+29св4568100 0.0 1009655
22:00+27ссз237994 0.0 1011114
29 мая, вс
вс2901:00+26сз1179100 0.0 101080
04:00+26св1180100 0.6 100937
07:00+25з2280100 0.8 100977
10:00+29св1163100 0.0 1010617
13:00+30всв4360100 0.0 1009870
16:00+30в4457100 0.0 1007772
19:00+28в4568100 0.0 1008561
22:00+27в017997 0.0 1009157